SCP
0 0 0 0 0 0 0 0 0 0 0 0 1 1 1 1 1 1 1 1 1 1 1 2 2 2 1 1 1 1 1 1 1 2 2 2 2 2 1 1 1 1 1 1
0 0 0 0 0 0 0 0 0 0 0 1 1 1 1 1 1 1 1 1 1 1 1 1 2 2 1 1 1 1 1 1 2 2 2 2 1 1 1 1 1 1 1 1
0 0 0 0 0 0 0 0 0 0 1 1 1 1 1 1 1 1 1 1 1 2 2 1 1 2 2 1 1 2 2 2 2 2 1 1 1 1 1 1 1 1 1 1
0 0 0 0 0 0 0 0 0 1 1 1 1 1 1 1 1 1 1 1 1 2 2 2 1 1 2 2 2 2 2 2 2 1 1 1 1 1 1 1 1 1 1 1
0 0 0 0 0 0 0 0 0 1 1 1 1 1 1 1 1 1 1 1 1 2 2 2 1 1 1 2 2 2 2 2 2 1 1 1 1 1 1 1 1 1 1 1
0 0 0 0 0 0 0 0 0 0 1 1 1 1 1 1 1 1 1 1 1 1 2 2 2 2 2 2 2 2 2 2 2 1 1 1 1 1 1 1 1 1 1 1
0 0 0 0 0 0 0 0 0 0 0 1 1 1 1 1 1 2 1 1 1 1 1 2 2 2 2 2 2 2 2 2 2 2 1 1 1 1 1 1 1 1 1 1
0 0 0 0 0 0 0 0 0 0 0 1 1 1 1 2 2 2 2 1 1 1 1 2 2 2 2 2 2 2 2 2 2 2 1 1 1 1 1 1 1 1 1 1
0 0 0 0 0 0 0 0 0 0 0 1 1 1 1 1 2 2 2 2 1 1 2 2 2 2 2 2 2 2 2 2 2 2 1 1 1 1 1 1 1 1 1 1
0 0 0 0 0 0 0 0 0 0 0 0 1 1 1 1 1 2 2 2 2 2 2 2 1 1 1 2 2 2 2 2 1 1 1 1 1 1 1 1 1 1 1 1
0 0 0 0 0 0 0 0 0 0 0 0 1 1 1 1 1 2 2 2 2 2 2 2 1 1 1 1 2 2 2 1 1 1 1 1 1 1 1 1 1 1 1 1
0 0 0 0 0 0 0 0 0 0 0 0 1 1 1 1 1 1 1 1 1 1 1 1 1 1 1 1 1 1 1 1 1 1 1 1 1 1 1 0 0 0 0 0
0 0 0 0 0 0 0 0 0 0 0 0 1 1 1 1 1 1 1 1 1 1 1 1 1 1 1 1 1 1 1 1 1 1 1 1 1 1 1 0 0 0 0 0
0 0 0 0 0 0 0 0 0 0 0 0 1 1 1 1 1 1 1 1 1 1 1 1 1 1 1 1 1 1 0 0 0 0 0 0 0 1 1 0 0 0 0 0
0 0 0 0 0 0 0 0 0 0 0 0 1 1 1 1 1 1 1 1 1 1 1 1 1 1 1 1 1 0 0 0 0 0 0 0 0 1 1 1 0 0 0 0
0 0 0 0 0 0 0 0 0 0 0 0 0 0 0 0 1 1 1 1 1 1 1 1 1 1 1 1 1 0 0 0 0 0 0 0 0 0 1 1 0 0 0 0
0 0 0 0 0 0 0 0 0 0 0 0 0 0 0 0 1 1 1 1 1 1 1 1 1 1 1 1 0 0 0 0 0 0 0 0 0 0 1 1 0 0 0 0
0 0 0 0 0 0 0 0 0 0 0 0 0 0 0 0 1 1 1 1 1 1 1 1 1 1 1 1 0 0 0 0 0 0 0 0 0 0 0 0 0 0 0 0
0 0 0 0 0 0 0 0 0 0 0 0 0 0 0 0 1 1 1 1 1 1 1 1 1 1 0 0 0 0 0 0 0 0 0 0 0 0 0 0 0 0 0 0
0 0 0 0 0 0 0 0 0 0 0 0 0 0 0 0 0 1 1 1 1 1 1 1 0 0 0 0 0 0 0 0 0 0 0 0 0 0 0 0 0 0 0 0
0 0 0 0 0 0 0 0 0 0 0 0 0 0 0 0 0 0 0 1 1 1 1 0 0 0 0 0 0 0 0 0 0 0 0 0 0 0 0 0 0 0 0 0
0 0 0 0 0 0 0 0 0 0 0 0 0 0 0 0 0 0 0 0 0 0 0 0 0 0 0 0 0 0 0 0 0 0 0 0 0 0 0 0 0 0 0 0
0 0 0 0 0 0 0 0 0 0 0 0 0 0 0 0 0 0 0 0 0 0 0 0 0 0 0 0 0 0 0 0 0 0 0 0 0 0 0 0 0 0 0 0
0 0 0 0 0 0 0 0 0 0 0 0 0 0 0 0 0 0 0 0 0 0 0 0 0 0 0 0 0 0 0 0 0 0 0 0 0 0 0 0 0 0 0 0
0 0 0 0 0 0 0 0 0 0 0 0 0 0 0 0 0 0 0 0 0 0 0 0 0 0 0 0 0 0 0 0 0 0 0 0 0 0 0 0 0 0 0 0
0 0 0 0 0 0 0 0 0 0 0 0 0 0 0 0 0 0 0 0 0 0 0 0 0 0 0 0 0 0 0 0 0 0 0 0 0 0 0 0 0 0 0 0
0 0 0 0 0 0 0 0 0 0 0 0 0 0 0 0 0 0 0 0 0 0 0 0 0 0 0 0 0 0 0 0 0 0 0 0 0 0 0 0 0 0 0 0
Wind_Speed
11 11 10 11 11 11 11 11 9 7 6 3 5 5 5 6 6 6 5 5 5 4 4 4 4 3 3 3 4 4 4 4 3 2 2 2 2 3 3 3 3 2 2 2
12 13 12 12 12 12 13 11 9 5 3 2 5 6 4 5 5 5 4 4 4 4 4 4 4 3 3 3 4 4 4 4 3 3 2 2 2 2 2 2 2 2 2 2
12 13 13 12 9 9 8 5 3 1 1 3 4 5 4 4 5 4 4 3 3 3 3 4 4 4 3 3 3 3 3 3 3 3 3 2 2 3 3 3 2 2 2 2
10 12 15 8 6 5 3 3 2 3 3 3 4 5 3 4 4 4 4 2 2 2 3 3 4 4 3 3 3 4 3 3 2 2 2 2 2 2 3 3 3 3 3 3
9 11 13 6 6 5 3 2 4 3 2 3 6 5 3 5 4 3 4 3 2 2 2 3 2 3 3 3 3 3 3 3 2 2 2 2 2 2 2 2 2 3 3 3
9 12 10 4 7 6 5 2 5 4 3 2 2 1 2 4 4 4 4 3 2 2 2 2 2 2 4 3 3 3 2 2 2 2 2 2 3 2 2 2 3 3 3 3
11 12 4 6 6 6 3 2 6 4 3 4 4 3 4 4 5 4 4 4 3 3 3 3 2 2 2 2 1 2 2 2 2 2 3 3 3 2 2 2 3 3 3 3
8 9 3 9 5 4 4 5 6 6 6 6 5 5 5 5 5 4 4 4 4 4 4 3 3 3 2 1 1 1 1 1 1 2 3 2 2 2 3 2 3 3 4 4
2 2 3 5 6 6 5 5 6 6 6 5 4 5 5 5 5 5 4 4 4 4 4 4 3 3 2 1 1 1 1 1 1 1 2 1 2 3 3 3 3 3 3 3
1 1 3 5 5 6 5 5 5 5 5 4 3 4 4 4 4 4 4 4 3 3 3 2 2 2 2 1 1 1 0 1 1 1 2 2 2 3 3 3 3 3 2 2
2 1 1 2 3 4 4 4 4 4 4 4 3 3 3 3 3 3 3 3 2 2 2 2 2 2 2 2 1 1 1 1 2 2 2 2 2 2 2 1 1 2 2 2
2 1 1 1 2 3 3 3 4 4 4 4 3 3 3 3 3 3 2 2 2 2 2 2 2 2 2 2 1 1 1 2 2 2 2 2 2 1 1 2 2 3 3 3
4 4 2 2 2 3 2 3 3 3 2 2 2 2 2 2 2 1 1 1 1 1 1 1 1 1 2 2 2 2 2 2 2 2 2 2 2 2 2 2 3 3 4 5
3 3 2 2 2 2 2 2 2 2 3 1 1 2 2 1 2 2 1 1 1 1 1 1 1 2 2 1 1 2 3 2 3 3 3 3 3 3 3 3 3 2 3 6
3 3 2 1 2 3 2 2 2 1 2 2 1 1 1 1 1 1 1 2 1 1 2 2 2 2 2 2 2 3 3 3 3 4 4 4 4 4 4 3 3 2 2 2
4 4 3 3 3 3 3 3 3 2 1 1 1 1 1 1 2 2 2 2 2 2 2 2 2 3 3 3 4 3 3 4 4 4 5 4 4 4 4 3 3 3 3 3
5 5 4 4 3 3 3 3 3 3 2 2 2 2 1 2 2 2 2 2 2 1 2 2 3 2 2 3 5 4 4 4 5 5 5 4 4 4 4 3 3 3 4 3
4 4 3 3 3 2 3 3 3 3 3 2 2 2 2 2 3 3 3 3 3 3 3 3 3 3 3 4 4 5 5 4 4 4 4 4 4 4 4 4 4 5 4 2
3 2 2 2 2 2 2 2 3 3 2 2 2 2 3 3 3 4 4 3 3 3 3 3 4 4 4 4 5 5 5 5 4 4 4 4 4 5 5 5 4 4 3 3
2 1 1 2 2 2 2 2 2 3 2 2 2 3 3 3 4 4 4 4 3 4 3 3 4 4 4 4 5 5 5 5 5 4 4 4 4 4 5 5 5 4 4 3
1 1 2 2 2 2 2 2 3 3 2 2 2 3 3 4 4 4 4 4 3 3 4 3 3 3 3 4 5 5 5 5 4 4 4 4 5 5 5 5 5 4 4 4
1 1 2 2 2 2 2 3 3 3 3 3 3 4 4 4 4 4 3 3 3 3 4 3 2 2 4 5 4 4 4 5 4 3 3 4 5 5 5 5 5 4 4 4
2 2 2 2 3 3 3 3 4 4 4 4 4 4 4 4 4 4 3 2 3 3 4 3 3 3 5 4 4 4 5 4 4 4 4 4 4 5 5 5 4 4 4 4
2 2 3 3 3 3 3 4 4 3 4 4 3 4 4 4 3 3 2 2 2 3 4 3 3 4 5 4 4 4 4 4 3 3 4 4 4 4 4 4 4 4 4 4
3 3 3 3 3 3 3 4 4 4 4 3 4 3 4 3 3 3 3 3 2 3 4 2 4 5 5 4 4 3 4 3 4 4 4 4 4 4 4 4 4 4 4 3
3 3 2 2 2 3 3 3 3 3 3 3 3 3 3 2 2 2 2 4 4 4 4 3 3 4 4 4 3 4 4 3 3 3 3 3 4 4 4 4 5 4 3 3
2 2 1 2 2 2 3 3 3 3 3 3 4 4 3 3 2 3 4 3 3 3 3 3 3 3 3 3 3 3 3 3 2 2 3 3 3 3 3 4 4 4 4 3
Wind_Direction
267 269 253 256 258 255 260 264 269 261 255 224 143 127 122 124 125 125 121 118 111 105 101 102 104 111 123 137 131 134 139 146 149 156 149 155 158 161 168 183 197 190 193 196
276 269 268 259 258 251 250 252 251 251 255 76 96 115 119 123 134 131 120 117 115 113 112 111 120 124 121 132 132 137 144 145 141 148 152 143 167 162 165 183 198 196 202 208
274 279 274 260 264 269 273 293 282 260 122 97 111 118 133 135 133 128 132 140 119 119 118 125 128 129 132 135 138 136 139 142 142 153 162 171 188 164 178 193 196 204 206 207
267 274 266 273 289 292 308 324 0 81 107 114 108 91 87 107 113 121 126 138 127 124 118 112 119 124 129 139 137 141 145 147 153 165 172 175 188 189 202 196 196 201 207 206
265 263 264 277 318 338 326 337 23 44 66 99 102 99 83 82 87 106 128 128 113 112 123 114 117 137 142 153 147 153 160 164 171 177 181 193 202 207 215 206 205 206 207 197
257 263 270 314 336 339 309 278 42 50 18 30 111 161 92 84 71 77 84 89 89 81 89 89 101 149 155 166 156 162 168 173 171 181 198 205 206 205 208 210 213 216 217 209
257 263 276 341 340 313 280 16 14 37 31 36 43 44 75 77 81 85 88 83 80 77 76 71 68 93 119 126 158 168 161 162 170 186 202 201 200 205 211 221 225 218 223 221
258 265 293 354 353 12 37 40 29 36 39 47 56 67 66 69 84 87 85 81 71 64 63 62 62 73 76 71 114 126 139 166 191 205 232 213 187 202 207 216 234 227 225 227
326 30 64 37 48 39 32 43 36 31 32 47 55 69 67 71 82 80 75 67 65 66 64 58 54 59 60 33 51 108 140 178 207 225 242 216 197 208 213 216 231 242 231 228
285 84 61 45 42 38 31 36 30 24 22 27 50 62 74 76 74 70 66 64 56 63 71 63 49 39 32 29 31 73 56 263 232 217 231 234 227 227 226 230 238 246 254 258
280 320 332 35 37 33 27 28 23 19 11 15 55 64 66 77 78 74 70 60 60 61 57 46 35 29 26 27 33 21 274 270 255 248 240 239 239 263 256 251 241 252 276 287
291 333 308 349 29 29 35 19 8 12 12 23 36 48 51 66 70 65 58 49 33 34 35 36 33 16 6 4 3 288 253 260 266 261 254 252 233 251 264 230 202 211 229 247
359 347 349 359 358 358 6 4 355 353 359 7 28 44 41 54 70 66 50 41 29 21 27 11 8 12 12 5 345 318 300 293 286 278 261 256 253 238 250 245 235 238 242 241
354 328 311 317 326 329 339 342 336 340 337 347 39 43 35 43 48 46 26 349 336 353 351 347 1 2 356 334 322 310 299 296 293 289 285 275 268 258 243 247 247 240 232 234
308 297 282 307 323 310 302 293 287 307 331 346 27 54 44 26 16 354 333 314 316 330 333 335 334 333 330 310 298 291 294 295 295 295 286 282 282 280 274 271 271 269 240 233
284 281 265 261 273 284 291 292 295 300 307 316 321 350 11 343 330 318 305 295 293 299 310 311 306 310 317 314 300 276 262 270 278 285 284 278 272 273 275 275 273 269 260 240
264 259 256 257 266 277 286 290 293 297 298 294 304 308 309 301 297 303 302 291 289 286 295 293 293 305 313 305 296 287 277 261 254 271 275 281 284 283 279 273 272 265 263 252
270 267 264 270 272 278 282 285 290 296 301 307 315 309 305 303 300 303 299 294 288 292 302 300 305 306 296 292 291 287 287 282 270 270 277 281 285 288 285 279 278 283 283 249
272 265 268 279 280 279 290 299 306 321 340 336 328 315 313 311 309 303 302 303 297 292 300 305 298 291 290 287 289 275 276 276 275 271 275 268 267 274 278 279 279 280 283 272
268 273 285 291 288 289 294 305 309 316 315 311 310 310 307 307 306 305 305 301 300 303 307 305 290 288 290 294 291 281 282 284 288 290 290 289 287 288 290 291 290 287 283 276
291 280 275 281 292 295 298 303 306 306 310 302 295 295 297 301 302 300 297 297 319 326 315 301 288 297 306 310 290 291 291 288 285 286 291 292 291 289 290 292 291 288 286 280
327 311 300 302 298 302 304 298 298 295 290 289 290 289 289 291 289 286 288 297 309 329 311 302 309 340 329 308 297 300 293 292 298 299 293 288 286 288 288 289 290 292 289 286
318 315 309 306 306 306 305 297 289 283 279 281 284 283 282 287 285 288 293 301 305 312 305 313 318 315 308 299 299 294 291 297 299 294 288 285 286 287 289 292 294 295 295 294
308 301 293 291 291 287 286 287 284 279 273 269 267 271 275 274 273 275 281 269 273 282 290 286 271 273 271 276 284 287 289 290 290 292 291 292 294 294 293 294 295 297 297 297
290 283 283 287 277 279 279 277 274 267 265 268 271 270 268 268 270 281 298 304 291 275 287 265 247 251 258 273 277 286 293 298 299 296 290 293 298 302 303 301 301 300 300 300
283 275 278 279 290 291 288 297 306 307 299 295 297 294 286 279 270 270 275 279 286 282 286 285 264 253 267 279 287 288 289 289 291 297 307 306 308 310 311 311 312 310 308 302
254 262 256 266 280 287 295 297 296 297 303 312 308 302 301 298 291 286 283 283 290 292 292 293 293 287 282 285 285 286 293 305 313 319 319 319 316 312 310 311 311 313 315 319